Regional Weather Roundup
Issued by NWS State College, PA

Home | Current Version | Previous Version | Text Only | Print | Product List | Glossary On
Versions: 1 2 3 4 5 6 7 8 9 10 11 12 13 14 15 16 17 18 19 20 21 22 23 24 25 26 27 28 29 30 31 32 33 34 35 36 37 38 39 40 41 42 43 44 45 46 47 48 49 50
000
ASUS41 KCTP 160410
RWRCTP

REGIONAL WEATHER ROUNDUP
NATIONAL WEATHER SERVICE STATE COLLEGE PA
1200 AM EDT TUE SEP 16 2014

Note: "fair" indicates few or no clouds below 12,000 feet with no
significant weather and/or obstructions to visibility.

* = STATION THAT DOES NOT REPORT PRECIPITATION /E.G. RAIN...SNOW...ETC/
    THUNDER OR FOG.

PAZ002>004-007>009-013>016-020>023-029>032-160500-
WESTERN PENNSYLVANIA

CITY           SKY/WX    TMP DP  RH WIND       PRES   REMARKS
ERIE           LGT RAIN  56  53  90 CALM      30.07F
MEADVILLE      LGT RAIN  54  52  93 N5        30.07F
FRANKLIN*      CLOUDY    54  50  87 N3        30.08F
NEW CASTLE     LGT RAIN  57  55  93 N7        30.07S
BEAVER COUNTY  NOT AVBL
BUTLER*        CLOUDY    57  52  82 CALM      30.06F
PITTSBURGH INT CLOUDY    60  53  77 S3        30.04F
PITTSBURGH     CLOUDY    59  50  72 S8        30.05F
INDIANA*       CLOUDY    55  52  88 CALM      30.10S
LATROBE        MOCLDY    54  54 100 CALM      30.07F
WASHINGTON CO* CLOUDY    55  54  94 CALM      30.06F
$$

PAZ004>006-010>012-017>019-024>028-033>037-041-042-045-046-049>053-160500-
CENTRAL PENNSYLVANIA

CITY           SKY/WX    TMP DP  RH WIND       PRES   REMARKS
BRADFORD       RAIN      53  52  96 CALM      30.07S FOG
DUBOIS         LGT RAIN  54  53  97 NW3       30.06S
CLEARFIELD     CLOUDY    54  51  90 CALM      30.06F
JOHNSTOWN      MOCLDY    54  47  77 SW5       30.07F
ALTOONA        MOCLDY    52  50  93 CALM      30.06F
STATE COLLEGE  CLOUDY    57  51  81 CALM      30.05S
WILLIAMSPORT   CLOUDY    56  51  84 E3        30.03F
SELINSGROVE    MOCLDY    54  53  97 CALM      30.06S
FT INDIANTOWN  MOCLDY    51  51 100 N3        30.07F
CAPITAL CITY   MOCLDY    60  52  74 S5        30.06S
HARRISBURG     MOCLDY    60  52  74 E3        30.05F
YORK           CLOUDY    59  53  80 S3        30.07R
$$

PAZ038>040-043-044-047-048-054-055-060>062-067>071-160500-
EASTERN PENNSYLVANIA

CITY           SKY/WX    TMP DP  RH WIND       PRES   REMARKS
SCRANTON       CLOUDY    55  47  74 E6        30.06F
MOUNT POCONO   MOCLDY    49  46  90 CALM      30.08F
ALLENTOWN      PTCLDY    53  49  86 CALM      30.08F
QUAKERTOWN*    MOCLDY    50  48  93 CALM      30.09S
READING        PTCLDY    56  52  86 CALM      30.07S
LANCASTER      MOCLDY    55  51  86 E3        30.07F
COATESVILLE    CLOUDY    55  52  88 CALM      30.09S
POTTSTOWN      MOCLDY    54  51  90 CALM      30.09F
BLUE BELL      MOCLDY    54  52  94 CALM      30.08S
DOYLESTOWN     MOCLDY    53  50  89 CALM      30.08F
WILLOW GROVE   NOT AVBL
NORTH PHILA    MOCLDY    61  51  70 S3        30.10F
PHILADELPHIA   CLOUDY    62  51  67 VRB6      30.09S
$$



USA.gov is the U.S. government's official web portal to all federal, state and local government web resources and services.